• In Moldova, Republic
  • List of Countries
  • For 7 days
  • Water Temperature
  • Satellite Maps
  • Weather Map
  • Weather Widgets
  • user-avatar
    Login

    Hourly Weather Solden

    Today, 20 May, Sunday

    Time Temperature Precipitation Wind Pressure Humidity
    00:00 +2°C° 0.3 mm 1 mps 582 mmHg 94%
    01:00 +2°C° 0 mm 1 mps 582 mmHg 94%
    02:00 +1°C° 0.1 mm 1 mps 582 mmHg 94%
    03:00 +1°C° 0.1 mm 1 mps 582 mmHg 94%
    04:00 +1°C° 0.1 mm 1 mps 582 mmHg 94%
    05:00 +2°C° 0.1 mm 1 mps 582 mmHg 92%
    06:00 +3°C° 0.1 mm 1 mps 583 mmHg 90%
    07:00 +4°C° 0 mm 1 mps 583 mmHg 88%
    08:00 +5°C° 0.3 mm 1 mps 584 mmHg 84%
    09:00 +6°C° 0.3 mm 1 mps 584 mmHg 79%
    10:00 +7°C° 0.3 mm 1 mps 585 mmHg 75%
    11:00 +8°C° 0.6 mm 1 mps 585 mmHg 74%
    12:00 +8°C° 0.6 mm 1 mps 585 mmHg 74%
    13:00 +8°C° 0 mm 1 mps 585 mmHg 73%
    14:00 +8°C° 0.6 mm 1 mps 585 mmHg 73%
    15:00 +8°C° 0.6 mm 1 mps 584 mmHg 73%
    16:00 +8°C° 0.6 mm 1 mps 584 mmHg 74%
    17:00 +7°C° 0.5 mm 1 mps 584 mmHg 78%
    18:00 +7°C° 0.5 mm 1 mps 583 mmHg 83%
    19:00 +6°C° 0.5 mm 1 mps 583 mmHg 87%
    20:00 +5°C° 0.2 mm 1 mps 582 mmHg 90%
    21:00 +3°C° 0.2 mm 1 mps 582 mmHg 92%
    22:00 +2°C° 0.2 mm 1 mps 582 mmHg 94%
    23:00 +2°C° 0 mm 1 mps 582 mmHg 94%

    Tomorrow, 21 May, Monday

    Time Temperature Precipitation Wind Pressure Humidity
    00:00 +1°C° 0 mm 2 mps 582 mmHg 95%
    01:00 -1°C° 0 mm 2 mps 582 mmHg 95%
    02:00 -1°C° 0 mm 2 mps 581 mmHg 94%
    03:00 -1°C° 0 mm 2 mps 581 mmHg 94%
    04:00 -1°C° 0 mm 2 mps 581 mmHg 93%
    05:00 +1°C° 0 mm 2 mps 581 mmHg 90%
    06:00 +3°C° 0 mm 1 mps 582 mmHg 87%
    07:00 +4°C° 0 mm 1 mps 582 mmHg 84%
    08:00 +6°C° 0 mm 1 mps 583 mmHg 77%
    09:00 +8°C° 0 mm 1 mps 583 mmHg 70%
    10:00 +9°C° 0 mm 1 mps 584 mmHg 63%
    11:00 +10°C° 0.2 mm 1 mps 584 mmHg 62%
    12:00 +10°C° 0.2 mm 1 mps 584 mmHg 60%
    13:00 +10°C° 0.2 mm 2 mps 584 mmHg 59%
    14:00 +10°C° 0.4 mm 2 mps 584 mmHg 61%
    15:00 +10°C° 0.4 mm 2 mps 584 mmHg 63%
    16:00 +9°C° 0.4 mm 2 mps 583 mmHg 65%
    17:00 +9°C° 0.4 mm 1 mps 583 mmHg 71%
    18:00 +8°C° 0.4 mm 1 mps 582 mmHg 77%
    19:00 +7°C° 0.4 mm 1 mps 581 mmHg 84%
    20:00 +6°C° 0.1 mm 1 mps 581 mmHg 87%
    21:00 +4°C° 0.1 mm 1 mps 581 mmHg 90%
    22:00 +3°C° 0.1 mm 1 mps 580 mmHg 94%
    23:00 +3°C° 0 mm 1 mps 580 mmHg 94%

    Day after tomorrow, 22 May, Tuesday

    Time Temperature Precipitation Wind Pressure Humidity
    00:00 +3°C° 0 mm 1 mps 580 mmHg 95%
    01:00 +2°C° 0 mm 1 mps 580 mmHg 95%
    02:00 +2°C° 0 mm 1 mps 580 mmHg 95%
    03:00 +2°C° 0 mm 1 mps 580 mmHg 94%
    04:00 +2°C° 0 mm 1 mps 580 mmHg 94%
    05:00 +3°C° 0 mm 1 mps 580 mmHg 90%
    06:00 +4°C° 0 mm 1 mps 581 mmHg 86%
    07:00 +6°C° 0 mm 1 mps 582 mmHg 81%
    08:00 +7°C° 0 mm 1 mps 583 mmHg 74%
    09:00 +9°C° 0 mm 1 mps 583 mmHg 66%
    10:00 +10°C° 0 mm 1 mps 584 mmHg 59%
    11:00 +11°C° 0.3 mm 1 mps 584 mmHg 58%
    12:00 +11°C° 0.3 mm 1 mps 584 mmHg 58%
    13:00 +10°C° 0.3 mm 2 mps 584 mmHg 57%
    14:00 +10°C° 0.4 mm 2 mps 584 mmHg 59%
    15:00 +10°C° 0.4 mm 2 mps 584 mmHg 61%
    16:00 +10°C° 0.4 mm 2 mps 584 mmHg 62%
    17:00 +9°C° 0.4 mm 1 mps 584 mmHg 69%
    18:00 +8°C° 0.4 mm 1 mps 583 mmHg 76%
    19:00 +7°C° 0.4 mm 1 mps 583 mmHg 83%
    20:00 +6°C° 0.1 mm 1 mps 583 mmHg 86%
    21:00 +5°C° 0.1 mm 1 mps 582 mmHg 90%
    22:00 +4°C° 0.1 mm 1 mps 582 mmHg 93%
    23:00 +3°C° 0 mm 1 mps 582 mmHg 93%

    23 May, Wednesday

    Time Temperature Precipitation Wind Pressure Humidity
    00:00 +3°C° 0 mm 1 mps 582 mmHg 93%
    01:00 +2°C° 0 mm 1 mps 582 mmHg 93%
    02:00 +2°C° 0 mm 1 mps 582 mmHg 93%
    03:00 +2°C° 0 mm 1 mps 582 mmHg 93%
    04:00 +2°C° 0 mm 1 mps 582 mmHg 92%
    05:00 +3°C° 0 mm 1 mps 583 mmHg 87%
    06:00 +5°C° 0 mm 1 mps 584 mmHg 81%
    07:00 +6°C° 0 mm 0 mps 584 mmHg 76%
    08:00 +9°C° 0.1 mm 1 mps 585 mmHg 69%
    09:00 +11°C° 0.1 mm 1 mps 586 mmHg 62%
    10:00 +12°C° 0.1 mm 1 mps 587 mmHg 55%
    11:00 +13°C° 0.5 mm 1 mps 587 mmHg 54%
    12:00 +13°C° 0.5 mm 1 mps 587 mmHg 54%
    13:00 +13°C° 0.5 mm 1 mps 587 mmHg 54%
    14:00 +13°C° 1 mm 2 mps 587 mmHg 57%
    15:00 +13°C° 1 mm 2 mps 587 mmHg 60%
    16:00 +12°C° 1 mm 2 mps 586 mmHg 63%
    17:00 +11°C° 0.9 mm 1 mps 586 mmHg 70%
    18:00 +10°C° 0.9 mm 1 mps 585 mmHg 78%
    19:00 +9°C° 0.9 mm 1 mps 585 mmHg 85%
    20:00 +7°C° 0.3 mm 1 mps 584 mmHg 87%
    21:00 +5°C° 0.3 mm 0 mps 584 mmHg 90%
    22:00 +4°C° 0.3 mm 0 mps 584 mmHg 92%
    23:00 +3°C° 0 mm 0 mps 583 mmHg 92%

    24 May, Thursday

    Time Temperature Precipitation Wind Pressure Humidity
    00:00 +4°C° 0 mm 1 mps 583 mmHg 92%
    01:00 +4°C° 0 mm 1 mps 583 mmHg 91%
    02:00 +4°C° 0 mm 1 mps 583 mmHg 91%
    03:00 +3°C° 0 mm 1 mps 583 mmHg 90%
    04:00 +3°C° 0 mm 1 mps 583 mmHg 90%
    05:00 +5°C° 0 mm 1 mps 584 mmHg 85%
    06:00 +6°C° 0 mm 0 mps 584 mmHg 80%
    07:00 +8°C° 0 mm 0 mps 585 mmHg 75%
    08:00 +10°C° 0 mm 0 mps 586 mmHg 67%
    09:00 +12°C° 0 mm 1 mps 587 mmHg 60%
    10:00 +14°C° 0 mm 1 mps 588 mmHg 52%
    11:00 +15°C° 0.4 mm 1 mps 588 mmHg 51%
    12:00 +15°C° 0.4 mm 1 mps 588 mmHg 51%
    13:00 +15°C° 0.4 mm 2 mps 588 mmHg 50%
    14:00 +15°C° 1 mm 2 mps 587 mmHg 54%
    15:00 +14°C° 1 mm 2 mps 587 mmHg 57%
    16:00 +14°C° 1 mm 2 mps 587 mmHg 61%
    17:00 +12°C° 0.9 mm 1 mps 586 mmHg 69%
    18:00 +11°C° 0.9 mm 1 mps 586 mmHg 76%
    19:00 +9°C° 0.9 mm 0 mps 585 mmHg 83%
    20:00 +8°C° 0.3 mm 0 mps 585 mmHg 85%
    21:00 +8°C° 0.3 mm 1 mps 584 mmHg 88%
    22:00 +6°C° 0.3 mm 1 mps 584 mmHg 90%
    23:00 +6°C° 0 mm 1 mps 584 mmHg 90%

    25 May, Friday

    Time Temperature Precipitation Wind Pressure Humidity
    00:00 +5°C° 0 mm 1 mps 584 mmHg 91%
    01:00 +5°C° 0 mm 1 mps 583 mmHg 91%
    02:00 +4°C° 0 mm 1 mps 583 mmHg 90%
    03:00 +4°C° 0 mm 1 mps 583 mmHg 90%
    04:00 +4°C° 0 mm 1 mps 583 mmHg 89%
    05:00 +6°C° 0 mm 1 mps 584 mmHg 84%
    06:00 +8°C° 0 mm 1 mps 585 mmHg 79%
    07:00 +10°C° 0 mm 1 mps 586 mmHg 73%
    08:00 +12°C° 0 mm 1 mps 587 mmHg 65%
    09:00 +14°C° 0 mm 1 mps 588 mmHg 57%
    10:00 +16°C° 0 mm 1 mps 589 mmHg 48%
    11:00 +16°C° 0.2 mm 1 mps 589 mmHg 47%
    12:00 +18°C° 0.2 mm 1 mps 589 mmHg 46%
    13:00 +18°C° 0.2 mm 1 mps 589 mmHg 44%
    14:00 +17°C° 0.8 mm 2 mps 589 mmHg 47%
    15:00 +16°C° 0.8 mm 2 mps 588 mmHg 50%
    16:00 +16°C° 0.8 mm 2 mps 588 mmHg 52%
    17:00 +14°C° 0.8 mm 2 mps 587 mmHg 60%
    18:00 +13°C° 0.8 mm 1 mps 587 mmHg 68%
    19:00 +11°C° 0.8 mm 1 mps 586 mmHg 76%
    20:00 +10°C° 0.5 mm 1 mps 586 mmHg 79%
    21:00 +9°C° 0.5 mm 1 mps 585 mmHg 81%
    22:00 +8°C° 0.5 mm 1 mps 585 mmHg 84%
    23:00 +7°C° 0.1 mm 1 mps 585 mmHg 84%
    Show more